Weather History for Cheboygan, MI

Change the Weather History Date:

Sunday, August 25, 2013

  Actual Average (KPLN) Record (KPLN)
Temperature  
Mean Temperature 74 °F -  
Max Temperature 90 °F 77 °F 93 °F (1948)
Min Temperature 58 °F 51 °F 33 °F (1977)
Cooling Degree Days 9    
Growing Degree Days 24 (Base 50)    
Moisture  
Dew Point 60 °F    
Average Humidity 60    
Maximum Humidity 94    
Minimum Humidity 42    
Precipitation  
Precipitation 0.00 in - - ()
Sea Level Pressure  
Sea Level Pressure 30.07 in    
Wind  
Wind Speed 8 mph (SW)    
Max Wind Speed 20 mph    
Max Gust Speed 32 mph    
Visibility 10 miles    
Events Rain    
Averages and records for this station are not official NWS values.
T = Trace of Precipitation, MM = Missing Value Source: NWS Daily Summary

Daily Weather History Graph

Daily Weather History Graph

Search for Another Location

Airport:

Trip Planner

Search our weather history database for the weather conditions in past years. The results will help you decide how hot, cold, wet, or windy it might be!

Date:

Astronomy

Aug. 25, 2013 Rise Set
Actual Time 6:50 AM EDT 8:28 PM EDT
Civil Twilight 6:19 AM EDT 8:59 PM EDT
Nautical Twilight 5:41 AM EDT 9:37 PM EDT
Astronomical Twilight 5:00 AM EDT 10:18 PM EDT
Moon 10:39 PM EDT (8/25) 12:10 PM EDT (8/25)
Length of Visible Light 14h 39m
Length of Day
13h 37m
Waning Gibbous, 76% of the Moon is Illuminated
Aug 25
Waning Gibbous
Aug 28
Last Quarter
Sep 5
New
Sep 12
First Quarter
Sep 19
Full

Hourly Weather History & Observations

Time (EDT) Temp. Heat Index Dew Point Humidity Pressure Visibility Wind Dir Wind Speed Gust Speed Precip Events Conditions
12:16 AM 60.3 °F - 58.1 °F 93% 30.20 in 10.0 mi Calm Calm - N/A   Clear
12:36 AM 59.2 °F - 56.7 °F 91% 30.20 in 10.0 mi Calm Calm - N/A   Clear
12:55 AM 59.9 °F - 57.4 °F 91% 30.19 in 10.0 mi SSW 3.5 mph - N/A   Clear
1:16 AM 61.9 °F - 57.9 °F 87% 30.19 in 10.0 mi South 4.6 mph - N/A   Clear
1:35 AM 60.4 °F - 57.4 °F 90% 30.19 in 10.0 mi SSW 3.5 mph - N/A   Clear
1:55 AM 60.3 °F - 56.8 °F 88% 30.19 in 10.0 mi Calm Calm - N/A   Clear
2:16 AM 58.8 °F - 56.3 °F 91% 30.19 in 10.0 mi Calm Calm - N/A   Clear
2:35 AM 59.7 °F - 57.9 °F 94% 30.19 in 10.0 mi South 4.6 mph - N/A   Clear
2:56 AM 61.9 °F - 57.9 °F 87% 30.18 in 10.0 mi SSE 5.8 mph - N/A   Clear
3:15 AM 61.7 °F - 57.2 °F 85% 30.18 in 10.0 mi SSE 5.8 mph - N/A   Clear
3:35 AM 60.4 °F - 56.3 °F 86% 30.17 in 10.0 mi SSE 4.6 mph - N/A   Clear
3:56 AM 60.8 °F - 55.8 °F 83% 30.17 in 10.0 mi South 3.5 mph - N/A   Clear
4:15 AM 62.2 °F - 55.9 °F 80% 30.18 in 10.0 mi SSW 4.6 mph - N/A   Clear
4:36 AM 62.2 °F - 55.4 °F 78% 30.17 in 10.0 mi South 3.5 mph - N/A   Clear
4:56 AM 63.3 °F - 55.2 °F 75% 30.16 in 10.0 mi SSW 4.6 mph - N/A   Clear
5:15 AM 63.7 °F - 54.5 °F 72% 30.16 in 10.0 mi South 4.6 mph - N/A   Clear
5:36 AM 63.9 °F - 54.5 °F 72% 30.15 in 10.0 mi South 5.8 mph - N/A   Clear
5:56 AM 64.4 °F - 54.9 °F 71% 30.15 in 10.0 mi South 4.6 mph - N/A   Scattered Clouds
6:15 AM 66.2 °F - 55.8 °F 69% 30.15 in 10.0 mi South 5.8 mph - N/A   Mostly Cloudy
6:36 AM 68.2 °F - 55.4 °F 64% 30.15 in 10.0 mi SSW 6.9 mph - N/A   Mostly Cloudy
6:55 AM 69.8 °F - 54.5 °F 58% 30.14 in 10.0 mi SSW 9.2 mph - N/A   Mostly Cloudy
7:16 AM 70.3 °F - 54.1 °F 56% 30.14 in 10.0 mi South 6.9 mph - N/A   Overcast
7:35 AM 70.7 °F - 54.1 °F 56% 30.13 in 10.0 mi SSW 11.5 mph - N/A   Scattered Clouds
7:56 AM 71.6 °F - 53.4 °F 53% 30.13 in 10.0 mi SSW 12.7 mph 18.4 mph N/A   Scattered Clouds
8:15 AM 72.1 °F - 53.1 °F 51% 30.14 in 10.0 mi SSW 10.4 mph 19.6 mph N/A   Scattered Clouds
8:36 AM 72.9 °F - 53.1 °F 50% 30.13 in 10.0 mi SSW 12.7 mph 19.6 mph N/A   Mostly Cloudy
8:55 AM 73.0 °F - 53.1 °F 49% 30.13 in 10.0 mi SSW 10.4 mph 16.1 mph N/A   Overcast
9:15 AM 73.4 °F - 53.2 °F 49% 30.12 in 10.0 mi SSW 10.4 mph 16.1 mph N/A   Scattered Clouds
9:36 AM 73.9 °F - 53.8 °F 49% 30.10 in 10.0 mi SSW 9.2 mph 18.4 mph N/A   Scattered Clouds
9:55 AM 75.7 °F - 54.5 °F 48% 30.08 in 10.0 mi SSW 13.8 mph 24.2 mph N/A   Clear
10:16 AM 77.2 °F - 55.6 °F 47% 30.07 in 10.0 mi SSW 16.1 mph 26.5 mph N/A   Clear
10:36 AM 77.0 °F - 56.7 °F 49% 30.07 in 10.0 mi SSW 15.0 mph 24.2 mph N/A   Clear
10:55 AM 78.3 °F - 57.6 °F 49% 30.05 in 10.0 mi SSW 18.4 mph 29.9 mph N/A   Clear
11:16 AM 79.7 °F - 58.5 °F 48% 30.06 in 10.0 mi SW 16.1 mph 27.6 mph N/A   Clear
11:35 AM 79.2 °F - 59.7 °F 51% 30.05 in 10.0 mi SSW 15.0 mph 26.5 mph N/A   Clear
11:55 AM 81.7 °F 82.3 °F 61.0 °F 49% 30.04 in 10.0 mi SW 17.3 mph 28.8 mph N/A   Clear
12:16 PM 84.2 °F 84.6 °F 61.5 °F 46% 30.04 in 10.0 mi SW 19.6 mph 25.3 mph N/A   Clear
12:35 PM 85.6 °F 86.1 °F 62.2 °F 45% 30.03 in 10.0 mi SW 17.3 mph 27.6 mph N/A   Clear
12:56 PM 86.9 °F 87.5 °F 62.8 °F 44% 30.03 in 10.0 mi WSW 17.3 mph 32.2 mph N/A   Clear
1:15 PM 87.4 °F 88.2 °F 63.1 °F 44% 30.02 in 10.0 mi WSW 13.8 mph 26.5 mph N/A   Scattered Clouds
1:36 PM 87.6 °F 88.5 °F 63.3 °F 44% 30.03 in 10.0 mi SW 13.8 mph 28.8 mph N/A   Scattered Clouds
1:55 PM 87.4 °F 88.5 °F 63.9 °F 45% 30.02 in 10.0 mi WSW 17.3 mph 28.8 mph N/A   Mostly Cloudy
2:15 PM 88.9 °F 90.0 °F 64.0 °F 43% 30.01 in 10.0 mi SW 18.4 mph 24.2 mph N/A   Scattered Clouds
2:36 PM 89.6 °F 91.1 °F 64.4 °F 43% 30.00 in 10.0 mi SW 17.3 mph 24.2 mph N/A   Clear
2:55 PM 90.3 °F 91.9 °F 64.4 °F 42% 30.00 in 10.0 mi WSW 13.8 mph 25.3 mph N/A   Clear
3:15 PM 88.9 °F 90.7 °F 65.1 °F 45% 30.00 in 10.0 mi West 17.3 mph 25.3 mph N/A   Scattered Clouds
3:36 PM 90.3 °F 92.2 °F 65.3 °F 43% 29.98 in 10.0 mi WSW 10.4 mph 23.0 mph N/A   Scattered Clouds
3:55 PM 88.2 °F 89.6 °F 64.4 °F 45% 29.98 in 10.0 mi WSW 18.4 mph 28.8 mph N/A   Scattered Clouds
4:16 PM 88.5 °F 90.1 °F 64.6 °F 45% 29.98 in 10.0 mi WSW 16.1 mph 27.6 mph N/A   Mostly Cloudy
4:36 PM 88.0 °F 89.6 °F 64.9 °F 46% 29.97 in 10.0 mi WSW 15.0 mph 21.9 mph N/A   Mostly Cloudy
4:55 PM 89.6 °F 91.5 °F 65.3 °F 44% 29.97 in 10.0 mi WSW 15.0 mph 21.9 mph N/A   Mostly Cloudy
5:16 PM 88.5 °F 90.1 °F 64.6 °F 45% 29.97 in 10.0 mi WSW 11.5 mph 24.2 mph N/A   Mostly Cloudy
5:35 PM 83.8 °F 86.5 °F 67.1 °F 57% 29.99 in 10.0 mi West 15.0 mph 20.7 mph N/A Rain Light Rain
5:55 PM 85.8 °F 87.6 °F 65.3 °F 50% 29.98 in 10.0 mi WSW 15.0 mph 21.9 mph N/A   Mostly Cloudy
6:16 PM 84.4 °F 86.3 °F 65.7 °F 53% 29.99 in 10.0 mi WSW 16.1 mph 23.0 mph N/A   Mostly Cloudy
6:35 PM 83.5 °F 85.5 °F 66.0 °F 55% 29.99 in 10.0 mi WSW 15.0 mph 29.9 mph N/A   Mostly Cloudy
6:55 PM 82.4 °F 84.8 °F 66.9 °F 59% 29.99 in 10.0 mi SW 8.1 mph 18.4 mph N/A   Mostly Cloudy
7:15 PM 81.9 °F 84.4 °F 67.1 °F 61% 29.99 in 10.0 mi SW 8.1 mph - N/A   Mostly Cloudy
7:35 PM 81.3 °F 84.0 °F 67.5 °F 63% 29.98 in 10.0 mi SW 6.9 mph - N/A   Overcast
7:56 PM 80.8 °F 83.2 °F 67.3 °F 63% 29.99 in 10.0 mi SW 4.6 mph - N/A   Overcast
8:15 PM 81.1 °F 83.4 °F 66.4 °F 61% 29.99 in 10.0 mi SW 9.2 mph - N/A   Scattered Clouds
8:35 PM 81.7 °F 83.6 °F 65.5 °F 58% 29.98 in 10.0 mi SW 6.9 mph 16.1 mph N/A   Scattered Clouds
8:56 PM 81.7 °F 83.5 °F 65.1 °F 57% 29.98 in 10.0 mi SSW 8.1 mph - N/A   Mostly Cloudy
9:15 PM 81.5 °F 83.3 °F 64.9 °F 57% 29.99 in 10.0 mi SW 10.4 mph - N/A   Scattered Clouds
9:36 PM 81.1 °F 82.8 °F 64.4 °F 57% 29.99 in 10.0 mi SW 10.4 mph - N/A   Clear
9:55 PM 81.5 °F 82.9 °F 64.0 °F 55% 30.00 in 10.0 mi SSW 6.9 mph - N/A   Clear
10:15 PM 81.5 °F 82.9 °F 63.7 °F 55% 30.00 in 10.0 mi SW 9.2 mph 16.1 mph N/A   Clear
10:36 PM 81.5 °F 82.8 °F 63.5 °F 54% 29.99 in 10.0 mi SW 10.4 mph 17.3 mph N/A   Clear
10:55 PM 81.5 °F 82.8 °F 63.1 °F 54% 29.99 in 10.0 mi SW 8.1 mph 17.3 mph N/A   Clear
11:15 PM 81.0 °F 82.3 °F 63.5 °F 55% 29.98 in 10.0 mi SSW 11.5 mph - N/A   Clear
11:36 PM 80.4 °F 81.8 °F 63.5 °F 56% 29.98 in 10.0 mi SSW 9.2 mph - N/A   Clear
11:55 PM 80.1 °F 81.7 °F 63.9 °F 58% 29.97 in 10.0 mi SW 10.4 mph 16.1 mph N/A   Clear